When you browse on this site, cookies collect data to enhance your experience and personalize the content and advertising you see.
Visit our Privacy Policy to learn more. By continuing to use the site, you agree to this use of cookies and data.

Hourly Weather Monastyriska

Today, 16 July, Thursday

Time Temperature Precipitation Wind Pressure Humidity
00:00 +15°C° 0 mm 1 mps 726 mmHg 77%
01:00 +14°C° 0 mm 1 mps 726 mmHg 79%
02:00 +14°C° 0 mm 1 mps 726 mmHg 77%
03:00 +14°C° 0 mm 1 mps 726 mmHg 78%
04:00 +14°C° 0 mm 1 mps 725 mmHg 78%
05:00 +14°C° 0 mm 1 mps 725 mmHg 79%
06:00 +15°C° 0 mm 1 mps 725 mmHg 79%
07:00 +16°C° 0 mm 1 mps 725 mmHg 78%
08:00 +18°C° 0 mm 1 mps 726 mmHg 76%
09:00 +19°C° 0.1 mm 1 mps 726 mmHg 73%
10:00 +21°C° 0.1 mm 1 mps 726 mmHg 70%
11:00 +21°C° 0.1 mm 2 mps 726 mmHg 68%
12:00 +21°C° 0.3 mm 2 mps 726 mmHg 66%
13:00 +23°C° 0.3 mm 2 mps 725 mmHg 63%
14:00 +24°C° 0.3 mm 2 mps 725 mmHg 61%
15:00 +24°C° 0.2 mm 2 mps 725 mmHg 62%
16:00 +24°C° 0.2 mm 1 mps 725 mmHg 62%
17:00 +24°C° 0.2 mm 1 mps 725 mmHg 63%
18:00 +22°C° 0.4 mm 1 mps 725 mmHg 69%
19:00 +20°C° 0.4 mm 1 mps 725 mmHg 76%
20:00 +19°C° 0.4 mm 1 mps 724 mmHg 82%
21:00 +18°C° 0 mm 1 mps 725 mmHg 84%
22:00 +16°C° 0 mm 1 mps 725 mmHg 86%
23:00 +15°C° 0 mm 1 mps 725 mmHg 88%

Tomorrow, 17 July, Friday

Time Temperature Precipitation Wind Pressure Humidity
00:00 +15°C° 0 mm 1 mps 725 mmHg 89%
01:00 +15°C° 0 mm 1 mps 725 mmHg 90%
02:00 +14°C° 0 mm 1 mps 725 mmHg 91%
03:00 +14°C° 0 mm 1 mps 725 mmHg 92%
04:00 +14°C° 0 mm 1 mps 725 mmHg 93%
05:00 +14°C° 0 mm 1 mps 725 mmHg 94%
06:00 +15°C° 0 mm 1 mps 725 mmHg 91%
07:00 +16°C° 0 mm 2 mps 725 mmHg 89%
08:00 +17°C° 0 mm 2 mps 726 mmHg 87%
09:00 +18°C° 0.4 mm 2 mps 726 mmHg 83%
10:00 +21°C° 0.4 mm 1 mps 726 mmHg 78%
11:00 +22°C° 0.4 mm 1 mps 726 mmHg 74%
12:00 +23°C° 0.8 mm 1 mps 726 mmHg 70%
13:00 +24°C° 0.8 mm 1 mps 726 mmHg 66%
14:00 +24°C° 0.8 mm 1 mps 726 mmHg 62%
15:00 +24°C° 0.5 mm 1 mps 726 mmHg 64%
16:00 +24°C° 0.5 mm 1 mps 726 mmHg 66%
17:00 +24°C° 0.5 mm 1 mps 726 mmHg 68%
18:00 +22°C° 0.5 mm 1 mps 726 mmHg 74%
19:00 +21°C° 0.5 mm 1 mps 726 mmHg 79%
20:00 +19°C° 0.5 mm 1 mps 726 mmHg 85%
21:00 +19°C° 0.1 mm 1 mps 726 mmHg 87%
22:00 +18°C° 0.1 mm 1 mps 726 mmHg 88%
23:00 +16°C° 0.1 mm 1 mps 726 mmHg 90%

Day after tomorrow, 18 July, Saturday

Time Temperature Precipitation Wind Pressure Humidity
00:00 +16°C° 0.2 mm 1 mps 726 mmHg 91%
01:00 +16°C° 0.2 mm 1 mps 726 mmHg 92%
02:00 +15°C° 0.2 mm 1 mps 726 mmHg 93%
03:00 +15°C° 0.2 mm 1 mps 726 mmHg 93%
04:00 +15°C° 0.2 mm 1 mps 726 mmHg 94%
05:00 +15°C° 0.2 mm 1 mps 726 mmHg 95%
06:00 +16°C° 0 mm 1 mps 726 mmHg 92%
07:00 +18°C° 0 mm 1 mps 726 mmHg 89%
08:00 +20°C° 0 mm 1 mps 727 mmHg 87%
09:00 +20°C° 0.4 mm 2 mps 727 mmHg 83%
10:00 +21°C° 0.4 mm 2 mps 727 mmHg 79%
11:00 +24°C° 0.4 mm 3 mps 727 mmHg 75%
12:00 +24°C° 0.9 mm 3 mps 727 mmHg 73%
13:00 +25°C° 0.9 mm 4 mps 726 mmHg 72%
14:00 +25°C° 0.9 mm 4 mps 726 mmHg 70%
15:00 +25°C° 0.6 mm 4 mps 726 mmHg 72%
16:00 +25°C° 0.6 mm 4 mps 726 mmHg 74%
17:00 +25°C° 0.6 mm 3 mps 726 mmHg 76%
18:00 +22°C° 0.5 mm 3 mps 726 mmHg 80%
19:00 +21°C° 0.5 mm 3 mps 726 mmHg 83%
20:00 +20°C° 0.5 mm 3 mps 726 mmHg 87%
21:00 +19°C° 0.1 mm 3 mps 726 mmHg 88%
22:00 +18°C° 0.1 mm 3 mps 727 mmHg 89%
23:00 +18°C° 0.1 mm 3 mps 727 mmHg 90%

19 July, Sunday

Time Temperature Precipitation Wind Pressure Humidity
00:00 +17°C° 0 mm 3 mps 727 mmHg 90%
01:00 +17°C° 0 mm 2 mps 727 mmHg 91%
02:00 +16°C° 0 mm 2 mps 726 mmHg 91%
03:00 +16°C° 0 mm 2 mps 726 mmHg 92%
04:00 +16°C° 0 mm 2 mps 726 mmHg 93%
05:00 +15°C° 0 mm 2 mps 726 mmHg 93%
06:00 +17°C° 0 mm 2 mps 727 mmHg 90%
07:00 +18°C° 0 mm 2 mps 727 mmHg 87%
08:00 +20°C° 0 mm 2 mps 727 mmHg 85%
09:00 +21°C° 0.6 mm 3 mps 727 mmHg 80%
10:00 +22°C° 0.6 mm 3 mps 727 mmHg 76%
11:00 +24°C° 0.6 mm 3 mps 727 mmHg 71%
12:00 +25°C° 0.6 mm 3 mps 727 mmHg 70%
13:00 +25°C° 0.6 mm 3 mps 727 mmHg 68%
14:00 +25°C° 0.6 mm 3 mps 726 mmHg 66%
15:00 +25°C° 0.2 mm 3 mps 726 mmHg 68%
16:00 +25°C° 0.2 mm 3 mps 726 mmHg 70%
17:00 +25°C° 0.2 mm 3 mps 726 mmHg 71%
18:00 +22°C° 0.5 mm 3 mps 726 mmHg 76%
19:00 +21°C° 0.5 mm 3 mps 725 mmHg 81%
20:00 +20°C° 0.5 mm 2 mps 725 mmHg 86%
21:00 +19°C° 0 mm 2 mps 725 mmHg 87%
22:00 +18°C° 0 mm 2 mps 725 mmHg 88%
23:00 +18°C° 0 mm 2 mps 726 mmHg 89%

20 July, Monday

Time Temperature Precipitation Wind Pressure Humidity
00:00 +17°C° 0 mm 2 mps 725 mmHg 90%
01:00 +17°C° 0 mm 2 mps 725 mmHg 91%
02:00 +18°C° 0 mm 1 mps 725 mmHg 92%
03:00 +16°C° 0.4 mm 1 mps 725 mmHg 93%
04:00 +16°C° 0.4 mm 1 mps 725 mmHg 94%
05:00 +16°C° 0.4 mm 1 mps 725 mmHg 95%
06:00 +17°C° 0.7 mm 2 mps 725 mmHg 94%
07:00 +18°C° 0.7 mm 2 mps 725 mmHg 94%
08:00 +18°C° 0.7 mm 2 mps 725 mmHg 93%
09:00 +19°C° 0.2 mm 2 mps 725 mmHg 91%
10:00 +19°C° 0.2 mm 3 mps 725 mmHg 89%
11:00 +20°C° 0.2 mm 3 mps 725 mmHg 87%
12:00 +21°C° 0.1 mm 2 mps 725 mmHg 83%
13:00 +21°C° 0.1 mm 2 mps 725 mmHg 79%
14:00 +23°C° 0.1 mm 2 mps 725 mmHg 75%
15:00 +23°C° 0.3 mm 2 mps 725 mmHg 75%
16:00 +24°C° 0.3 mm 2 mps 725 mmHg 74%
17:00 +24°C° 0.3 mm 2 mps 725 mmHg 73%
18:00 +23°C° 0.1 mm 1 mps 725 mmHg 77%
19:00 +21°C° 0.1 mm 1 mps 725 mmHg 82%
20:00 +20°C° 0.1 mm 1 mps 725 mmHg 86%
21:00 +19°C° 0 mm 1 mps 725 mmHg 87%
22:00 +19°C° 0 mm 1 mps 725 mmHg 87%
23:00 +18°C° 0 mm 1 mps 725 mmHg 88%

21 July, Tuesday

Time Temperature Precipitation Wind Pressure Humidity
00:00 +18°C° 0 mm 1 mps 725 mmHg 89%
01:00 +18°C° 0 mm 1 mps 725 mmHg 90%
02:00 +16°C° 0 mm 1 mps 725 mmHg 91%
03:00 +16°C° 0 mm 1 mps 725 mmHg 91%
04:00 +16°C° 0 mm 2 mps 725 mmHg 92%
05:00 +16°C° 0 mm 2 mps 726 mmHg 93%
06:00 +18°C° 0 mm 3 mps 726 mmHg 90%
07:00 +19°C° 0 mm 4 mps 726 mmHg 86%
08:00 +21°C° 0 mm 4 mps 726 mmHg 83%
09:00 +21°C° 0.2 mm 5 mps 726 mmHg 82%
10:00 +22°C° 0.2 mm 6 mps 726 mmHg 82%
11:00 +23°C° 0.2 mm 6 mps 727 mmHg 81%
12:00 +23°C° 0.7 mm 6 mps 727 mmHg 80%
13:00 +23°C° 0.7 mm 6 mps 727 mmHg 78%
14:00 +23°C° 0.7 mm 6 mps 727 mmHg 77%
15:00 +23°C° 0.3 mm 6 mps 727 mmHg 77%
16:00 +22°C° 0.3 mm 6 mps 727 mmHg 78%
17:00 +22°C° 0.3 mm 6 mps 727 mmHg 78%
18:00 +21°C° 0 mm 5 mps 727 mmHg 82%
19:00 +19°C° 0 mm 4 mps 728 mmHg 86%
20:00 +18°C° 0 mm 3 mps 728 mmHg 89%
21:00 +17°C° 0 mm 3 mps 728 mmHg 90%
22:00 +16°C° 0 mm 2 mps 728 mmHg 91%
23:00 +15°C° 0 mm 2 mps 729 mmHg 91%
Show more